Voltar ao catálogo

BREEZE-M R/B

AtivoMEO
NORAD 37751·ROCKET BODY·🇷🇺 Russia

Lançado Jul 15, 2011 de Baikonur Cosmodrome

Loading…

Próximas Passagens (próximas 24 horas)

TLE

AtualizadoSource: Space-Track

Época: Sep 14, 2026, 07:30 UTC

1 37751U 11035D   26257.31277781 -.00000186  00000-0  00000-0 0  9997
2 37751   9.5351  33.0706 0768750  68.3309 111.0646  1.12713666 62380

Acompanhe BREEZE-M R/B em tempo real com AllMySat

Download on the App Store